TimeCST,TemperatureF,Dew PointF,Humidity,Sea Level PressureIn,VisibilityMPH,Wind Direction,Wind SpeedMPH,Gust SpeedMPH,PrecipitationIn,Events,Conditions,WindDirDegrees,DateUTC
12:15 AM,32.4,29.1,88,29.94,10.0,East,11.5,-,N/A,,Clear,80,2013-02-26 06:15:00
12:35 AM,32.9,29.1,86,29.92,10.0,East,12.7,17.3,N/A,,Clear,80,2013-02-26 06:35:00
12:55 AM,32.9,29.1,86,29.91,10.0,ENE,11.5,17.3,N/A,,Clear,70,2013-02-26 06:55:00
1:15 AM,33.4,28.9,84,29.92,10.0,East,13.8,-,N/A,,Clear,80,2013-02-26 07:15:00
1:35 AM,33.3,29.1,85,29.89,10.0,ENE,16.1,-,N/A,,Clear,60,2013-02-26 07:35:00
1:55 AM,33.3,28.9,84,29.86,10.0,ENE,17.3,-,N/A,,Clear,60,2013-02-26 07:55:00
2:15 AM,33.3,29.1,85,29.87,10.0,ENE,16.1,23.0,N/A,,Clear,60,2013-02-26 08:15:00
2:35 AM,33.3,29.1,85,29.85,10.0,ENE,18.4,-,N/A,,Clear,60,2013-02-26 08:35:00
2:55 AM,33.3,28.9,84,29.83,10.0,ENE,18.4,25.3,N/A,,Clear,70,2013-02-26 08:55:00
3:15 AM,33.1,28.9,85,29.82,10.0,ENE,18.4,-,N/A,,Clear,60,2013-02-26 09:15:00
3:35 AM,33.1,28.9,85,29.80,10.0,NE,19.6,-,N/A,,Clear,50,2013-02-26 09:35:00
3:55 AM,33.3,28.9,84,29.79,10.0,NE,18.4,-,N/A,,Scattered Clouds,50,2013-02-26 09:55:00
4:15 AM,33.3,28.8,84,29.79,10.0,ENE,18.4,25.3,N/A,,Scattered Clouds,60,2013-02-26 10:15:00
4:35 AM,33.3,28.9,84,29.78,10.0,NE,18.4,23.0,N/A,,Scattered Clouds,50,2013-02-26 10:35:00
4:55 AM,33.3,28.9,84,29.77,10.0,ENE,20.7,25.3,N/A,,Scattered Clouds,60,2013-02-26 10:55:00
5:15 AM,33.3,28.9,84,29.76,10.0,ENE,21.9,27.6,N/A,,Clear,60,2013-02-26 11:15:00
5:35 AM,33.3,28.9,84,29.73,10.0,NE,19.6,27.6,N/A,,Scattered Clouds,50,2013-02-26 11:35:00
5:55 AM,33.1,28.9,85,29.71,10.0,NE,24.2,31.1,N/A,,Mostly Cloudy,50,2013-02-26 11:55:00
6:15 AM,33.1,28.8,84,29.72,10.0,ENE,23.0,31.1,N/A,,Scattered Clouds,70,2013-02-26 12:15:00
6:35 AM,33.3,28.4,82,29.72,10.0,ENE,20.7,26.5,N/A,,Scattered Clouds,60,2013-02-26 12:35:00
6:55 AM,33.3,28.2,82,29.72,10.0,ENE,21.9,31.1,N/A,,Mostly Cloudy,60,2013-02-26 12:55:00
7:15 AM,33.4,28.2,81,29.73,10.0,ENE,19.6,25.3,N/A,,Scattered Clouds,70,2013-02-26 13:15:00
7:35 AM,33.3,28.2,82,29.71,10.0,ENE,20.7,28.8,N/A,,Clear,60,2013-02-26 13:35:00
7:55 AM,33.4,27.9,80,29.70,10.0,ENE,23.0,28.8,N/A,,Clear,70,2013-02-26 13:55:00
8:15 AM,33.8,27.9,79,29.70,10.0,ENE,21.9,26.5,N/A,,Clear,70,2013-02-26 14:15:00
8:35 AM,34.0,27.9,78,29.68,10.0,ENE,27.6,33.4,N/A,,Clear,60,2013-02-26 14:35:00
8:55 AM,34.2,27.9,78,29.65,10.0,ENE,28.8,34.5,N/A,,Scattered Clouds,60,2013-02-26 14:55:00
9:15 AM,34.2,27.7,77,29.64,10.0,NE,26.5,33.4,N/A,,Scattered Clouds,50,2013-02-26 15:15:00
9:35 AM,34.2,27.7,77,29.63,10.0,NE,24.2,-,N/A,,Scattered Clouds,50,2013-02-26 15:35:00
9:55 AM,34.0,28.2,79,29.62,10.0,NE,23.0,31.1,N/A,,Mostly Cloudy,40,2013-02-26 15:55:00
10:15 AM,33.8,28.2,80,29.62,10.0,NE,25.3,32.2,N/A,,Mostly Cloudy,50,2013-02-26 16:15:00
10:35 AM,34.0,28.0,79,29.61,10.0,NE,25.3,33.4,N/A,,Mostly Cloudy,40,2013-02-26 16:35:00
10:55 AM,33.8,28.4,81,29.61,10.0,NE,23.0,29.9,N/A,,Mostly Cloudy,50,2013-02-26 16:55:00
11:15 AM,33.8,28.6,81,29.62,7.0,NE,19.6,27.6,N/A,Rain,Light Rain,50,2013-02-26 17:15:00
11:35 AM,32.2,30.0,92,29.63,0.5,NE,19.6,26.5,N/A,Snow,Snow,50,2013-02-26 17:35:00
11:55 AM,32.0,31.1,96,29.61,0.2,NE,21.9,29.9,N/A,Snow,Snow,50,2013-02-26 17:55:00
12:15 PM,31.8,31.1,97,29.58,0.8,NE,24.2,34.5,N/A,Snow,Light Snow,40,2013-02-26 18:15:00
12:35 PM,31.6,30.9,97,29.56,0.5,NE,25.3,31.1,N/A,Snow,Light Snow,40,2013-02-26 18:35:00
12:55 PM,31.5,30.7,97,29.56,0.5,NE,27.6,33.4,N/A,Snow,Snow,40,2013-02-26 18:55:00
1:15 PM,31.1,30.6,98,29.55,0.8,NE,27.6,35.7,N/A,Snow,Light Snow,40,2013-02-26 19:15:00
1:35 PM,31.1,30.2,96,29.54,0.5,NE,26.5,31.1,N/A,Snow,Snow,40,2013-02-26 19:35:00
1:55 PM,30.9,30.2,97,29.54,0.2,NE,25.3,29.9,N/A,Snow,Snow,40,2013-02-26 19:55:00
2:15 PM,30.9,30.2,97,29.55,0.5,NE,23.0,32.2,N/A,Snow,Snow,40,2013-02-26 20:15:00
2:35 PM,31.1,30.2,96,29.55,0.8,NE,24.2,32.2,N/A,Snow,Light Snow,40,2013-02-26 20:35:00
2:55 PM,31.1,30.4,97,29.55,1.2,NE,23.0,34.5,N/A,Snow,Light Snow,40,2013-02-26 20:55:00
3:15 PM,31.1,30.2,96,29.54,1.2,NE,23.0,31.1,N/A,Snow,Light Snow,40,2013-02-26 21:15:00
3:35 PM,31.3,30.2,96,29.55,2.0,NE,25.3,32.2,N/A,Snow,Light Snow,40,2013-02-26 21:35:00
3:55 PM,31.5,30.6,96,29.55,0.8,NNE,21.9,-,N/A,Snow,Light Snow,30,2013-02-26 21:55:00
4:15 PM,31.5,30.7,97,29.55,0.8,NE,24.2,28.8,N/A,Snow,Light Snow,40,2013-02-26 22:15:00
4:35 PM,31.5,30.7,97,29.54,1.2,NNE,24.2,31.1,N/A,Snow,Light Snow,30,2013-02-26 22:35:00
4:55 PM,31.5,30.7,97,29.55,0.8,NNE,21.9,31.1,N/A,Snow,Light Snow,30,2013-02-26 22:55:00
5:15 PM,31.6,30.9,97,29.55,1.2,NNE,21.9,27.6,N/A,Snow,Light Snow,30,2013-02-26 23:15:00
5:35 PM,31.8,31.1,97,29.56,1.2,NNE,21.9,27.6,N/A,Snow,Light Snow,30,2013-02-26 23:35:00
5:55 PM,32.0,31.5,98,29.56,2.0,NNE,23.0,26.5,N/A,Snow,Light Snow,30,2013-02-26 23:55:00
6:15 PM,32.0,31.5,98,29.57,1.0,NNE,18.4,-,N/A,Snow,Snow,30,2013-02-27 00:15:00
6:35 PM,32.0,31.8,99,29.57,1.5,NNE,19.6,24.2,N/A,Snow,Light Snow,30,2013-02-27 00:35:00
6:55 PM,32.0,31.8,99,29.56,1.5,NNE,21.9,27.6,N/A,Snow,Light Snow,30,2013-02-27 00:55:00
7:15 PM,32.0,32.0,100,29.56,0.8,NNE,19.6,25.3,N/A,Snow,Snow,30,2013-02-27 01:15:00
7:35 PM,32.0,32.0,100,29.56,1.2,NE,19.6,26.5,N/A,Snow,Light Snow,40,2013-02-27 01:35:00
7:55 PM,32.0,32.0,100,29.56,2.0,NE,19.6,24.2,N/A,Snow,Light Snow,40,2013-02-27 01:55:00
8:15 PM,32.0,31.8,99,29.56,3.0,NNE,19.6,-,N/A,Rain,Light Rain,30,2013-02-27 02:15:00
8:35 PM,32.0,31.6,99,29.56,5.0,NNE,19.6,25.3,N/A,Rain,Rain,30,2013-02-27 02:35:00
8:55 PM,32.2,31.5,97,29.56,7.0,NNE,17.3,-,N/A,,Drizzle,30,2013-02-27 02:55:00
9:15 PM,32.4,31.1,95,29.56,7.0,NNE,17.3,-,N/A,Rain,Light Rain,30,2013-02-27 03:15:00
9:35 PM,32.4,31.1,95,29.56,5.0,NNE,17.3,21.9,N/A,Rain,Light Rain,30,2013-02-27 03:35:00
9:55 PM,32.4,31.1,95,29.56,7.0,NNE,15.0,-,N/A,Rain,Rain,30,2013-02-27 03:55:00
10:15 PM,32.4,31.1,95,29.56,10.0,NNE,13.8,-,N/A,,Light Drizzle,30,2013-02-27 04:15:00
10:35 PM,32.5,30.9,94,29.56,10.0,NNE,17.3,-,N/A,,Overcast,30,2013-02-27 04:35:00
10:55 PM,32.5,30.9,94,29.56,10.0,NNE,16.1,21.9,N/A,,Overcast,30,2013-02-27 04:55:00
11:15 PM,32.4,30.9,94,29.56,10.0,NNE,16.1,-,N/A,,Overcast,20,2013-02-27 05:15:00
11:35 PM,32.9,30.7,92,29.56,10.0,NNE,16.1,-,N/A,,Overcast,20,2013-02-27 05:35:00
11:55 PM,32.4,30.7,94,29.56,10.0,NNE,12.7,-,N/A,,Overcast,20,2013-02-27 05:55:00